Location: Brachbach
(49.1847°N, 9.7240°E)
Time: 06:26:53
(UTC+00:00)

FO-29 - Pass Details

Date: 20 March 2026
Orbit: 801 x 1320 km, 98.5° (Epoch: 17 April)

Event Time Altitude Azimuth Distance (km) Brightness Sun altitude
Rises 21:41:02 0° 9° (N) 4,150 13.4 -35.6°
Reaches altitude 10° 21:44:01 10° 358° (N) 3,240 12.8 -35.8°
Maximum altitude 21:50:07 28° 305° (NW) 2,245 11.8 -36.4°
Drops below altitude 10° 21:56:25 10° 251° (WSW) 3,347 12.3 -36.9°
Sets 21:59:35 0° 240° (WSW) 4,311 12.9 -37.1°
